FW5968 Weather Reports


Display with metric or nautical units.
time (UTC)temp
F
wind
direction
speed
MPH
gust
MPH
rain 1hr
in
rain 24hr
in
rain mn
in
humidity
%
barometer
mb
20260503195516 55 0.0 0.0 0.00 0.00 0.00 78 1013.8
20260503194515 56 0.0 0.0 0.00 0.00 0.00 78 1013.6
20260503193516 56 0.0 0.0 0.00 0.00 0.00 78 1013.6
20260503192516 56 0.0 0.0 0.00 0.00 0.00 78 1013.4
20260503191516 57 0.0 0.0 0.00 0.00 0.00 78 1013.3
20260503190516 57 0.0 0.0 0.00 0.00 0.00 78 1013.2
20260503185515 58 0.0 0.0 0.00 0.00 0.00 78 1013.1
20260503184516 58 0.0 0.0 0.00 0.00 0.00 78 1013.1
20260503183535 58 0.0 0.0 0.00 0.00 0.00 78 1013.0
20260503182536 59 0.0 0.0 0.00 0.00 0.00 78 1013.0
20260503181516 59 0.0 0.0 0.00 0.00 0.00 77 1012.9
20260503180555 60 0.0 0.0 0.00 0.00 0.00 77 1013.0
20260503175516 60 0.0 0.0 0.00 0.00 0.00 77 1013.0
20260503174516 59 0.0 0.0 0.00 0.00 0.00 77 1013.0
20260503173517 60 0.0 0.0 0.00 0.00 0.00 77 1013.1
20260503172515 60 0.0 0.0 0.00 0.00 0.00 76 1013.1
20260503171535 60 0.0 0.0 0.00 0.00 0.00 76 1013.1
20260503170515 60 0.0 0.0 0.00 0.00 0.00 75 1013.1
20260503150516 65 0.0 0.0 0.00 0.00 0.00 77 1013.4
20260503130556 66 0.0 0.0 0.00 0.00 0.00 80 1013.9
20260503110515 61 0.0 0.0 0.00 0.00 0.00 82 1014.3
20260503081516 61 0.0 0.0 0.00 0.00 0.00 84 1014.0
20260503080515 61 0.0 0.0 0.00 0.00 0.00 84 1014.0
20260503072516 61 0.0 0.0 0.00 0.00 0.00 84 1013.8
20260503071516 61 0.0 0.0 0.00 0.00 0.00 84 1013.8
20260503070516 60 0.0 0.0 0.00 0.00 0.00 84 1013.8
20260503054515 54 0.0 0.0 0.00 0.00 0.00 83 1013.5
20260503053515 54 0.0 0.0 0.00 0.00 0.00 83 1013.5
20260503052516 53 0.0 0.0 0.00 0.00 0.00 83 1013.4
20260503051635 53 0.0 0.0 0.00 0.00 0.00 83 1013.3
20260503050515 54 0.0 0.0 0.00 0.00 0.00 83 1013.3
20260503045515 54 0.0 0.0 0.00 0.00 0.00 83 1013.4
20260503044536 54 0.0 0.0 0.00 0.00 0.00 83 1013.4
20260503043516 54 0.0 0.0 0.00 0.00 0.00 83 1013.3
20260503042516 54 0.0 0.0 0.00 0.00 0.00 83 1013.3
20260503041536 54 0.0 0.0 0.00 0.00 0.00 83 1013.4
20260503040535 54 0.0 0.0 0.00 0.00 0.00 83 1013.4
20260503035516 54 0.0 0.0 0.00 0.00 0.00 83 1013.4
20260503034516 54 0.0 0.0 0.00 0.00 0.00 83 1013.4
20260503033536 54 0.0 0.0 0.00 0.00 0.00 83 1013.4
20260503032535 54 0.0 0.0 0.00 0.00 0.00 83 1013.4
20260503031515 55 0.0 0.0 0.00 0.00 0.00 83 1013.6
20260503030516 54 0.0 0.0 0.00 0.00 0.00 83 1013.5
20260503025536 54 0.0 0.0 0.00 0.00 0.00 83 1013.5
20260503024536 54 0.0 0.0 0.00 0.00 0.00 83 1013.5
20260503023515 55 0.0 0.0 0.00 0.00 0.00 83 1013.5
20260503022516 55 0.0 0.0 0.00 0.00 0.00 83 1013.6
20260503021515 55 0.0 0.0 0.00 0.00 0.00 83 1013.8
20260503020516 55 0.0 0.0 0.00 0.00 0.00 83 1013.8
20260503015516 55 0.0 0.0 0.00 0.00 0.00 82 1013.8
20260503014515 55 0.0 0.0 0.00 0.00 0.00 82 1014.0
20260503013516 56 0.0 0.0 0.00 0.00 0.00 82 1014.0
20260503012515 56 0.0 0.0 0.00 0.00 0.00 81 1014.2
20260503011516 56 0.0 0.0 0.00 0.00 0.00 81 1014.3
20260503010515 56 0.0 0.0 0.00 0.00 0.00 81 1014.3
20260503005516 56 0.0 0.0 0.00 0.00 0.00 81 1014.3
20260503004516 56 0.0 0.0 0.00 0.00 0.00 81 1014.4
20260503003516 56 0.0 0.0 0.00 0.00 0.00 81 1014.5
20260503002516 57 0.0 0.0 0.00 0.00 0.00 81 1014.6
20260503001516 57 0.0 0.0 0.00 0.00 0.00 81 1014.6
20260503000516 57 0.0 0.0 0.00 0.00 0.00 80 1014.7
20260502235535 57 0.0 0.0 0.00 0.00 0.00 80 1014.8
20260502234515 57 0.0 0.0 0.00 0.00 0.00 80 1014.8
20260502233536 57 0.0 0.0 0.00 0.00 0.00 80 1014.9
20260502232517 57 0.0 0.0 0.00 0.00 0.00 80 1014.9
20260502231516 57 0.0 0.0 0.00 0.00 0.00 80 1015.0
20260502230515 58 0.0 0.0 0.00 0.00 0.00 80 1015.0
20260502225516 58 0.0 0.0 0.00 0.00 0.00 80 1015.0
20260502224516 58 0.0 0.0 0.00 0.00 0.00 80 1015.0
20260502223535 58 0.0 0.0 0.00 0.00 0.00 80 1015.0
20260502222516 58 0.0 0.0 0.00 0.00 0.00 80 1015.0
20260502221537 58 0.0 0.0 0.00 0.00 0.00 80 1015.0
20260502220515 58 0.0 0.0 0.00 0.00 0.00 79 1015.0
20260502215556 58 0.0 0.0 0.00 0.00 0.00 79 1015.0
20260502214516 58 0.0 0.0 0.00 0.00 0.00 79 1015.0
20260502213516 58 0.0 0.0 0.00 0.00 0.00 79 1015.1
20260502212535 59 0.0 0.0 0.00 0.00 0.00 79 1015.1
20260502211516 59 0.0 0.0 0.00 0.00 0.00 79 1015.1
20260502210535 59 0.0 0.0 0.00 0.00 0.00 79 1015.0
20260502205516 60 0.0 0.0 0.00 0.00 0.00 79 1014.9
20260502204516 60 0.0 0.0 0.00 0.00 0.00 79 1014.8
20260502203515 60 0.0 0.0 0.00 0.00 0.00 78 1014.6
20260502202516 61 0.0 0.0 0.00 0.00 0.00 78 1014.6
20260502201515 61 0.0 0.0 0.00 0.00 0.00 78 1014.5
20260502200516 61 0.0 0.0 0.00 0.00 0.00 78 1014.4